SES-7 (PROTOSTAR 2)

Last updated on Mon Sep 21 2026 00:02:57 GMT+0000 (Coordinated Universal Time)

1 34941U 09027A 26263.58394175 -.00000349 00000+0 00000+0 0 9995 2 34941 0.0575 77.3014 0000882 164.1464 76.5156 1.00270341 63586
UTC large
Height (km)
Speed (km/s)
/
Latitude / Longitude
Inclination (degrees)
Orbital Period (minutes)
Azimuth
Elevation
Range (km)
Doppler Factor

Next 0 passes for location: London (51.5072 / 0.1276)

No passes found over London.
SES-7 (PROTOSTAR 2)